| time (UTC) | temp F | wind direction | speed MPH | gust MPH | rain 1hr in | rain 24hr in | rain mn in | humidity % | barometer mb |
| 20260509024004 | 63 | 260 | 2.0 | 5.0 | 0.00 | 0.98 | 0.13 | 89 | 993.3 |
| 20260509023004 | 64 | 225 | 2.0 | 6.0 | 0.00 | 0.98 | 0.13 | 88 | 993.4 |
| 20260509022004 | 63 | 260 | 2.0 | 3.0 | 0.00 | 0.98 | 0.13 | 89 | 993.3 |
| 20260509021004 | 63 | 253 | 2.0 | 3.0 | 0.00 | 0.98 | 0.13 | 89 | 993.3 |
| 20260509020004 | 63 | 270 | 2.0 | 5.0 | 0.00 | 0.98 | 0.13 | 88 | 993.3 |
| 20260509015004 | 63 | 225 | 3.0 | 12.0 | 0.01 | 0.98 | 0.13 | 86 | 993.2 |
| 20260509014004 | 65 | 270 | 5.0 | 10.0 | 0.01 | 0.98 | 0.13 | 87 | 992.9 |
| 20260509013007 | 68 | 270 | 3.0 | 7.0 | 0.01 | 0.98 | 0.13 | 90 | 992.8 |
| 20260509012005 | 66 | 288 | 3.0 | 10.0 | 0.01 | 0.98 | 0.13 | 93 | 993.0 |
| 20260509011004 | 64 | 300 | 5.0 | 16.0 | 0.04 | 0.98 | 0.13 | 92 | 993.4 |
| 20260509010003 | 64 | 228 | 6.0 | 12.0 | 0.04 | 0.98 | 0.13 | 95 | 993.5 |
| 20260509005003 | 63 | 344 | 4.0 | 7.0 | 0.03 | 0.97 | 0.12 | 96 | 993.4 |
| 20260509004003 | 62 | 279 | 2.0 | 7.0 | 0.03 | 0.97 | 0.12 | 97 | 993.6 |
| 20260509003003 | 62 | 225 | 1.0 | 3.0 | 0.03 | 0.97 | 0.12 | 95 | 993.6 |
| 20260509002004 | 61 | 225 | 2.0 | 6.0 | 0.03 | 0.97 | 0.12 | 92 | 993.9 |
| 20260509001004 | 64 | 246 | 5.0 | 13.0 | 0.01 | 0.94 | 0.09 | 88 | 994.1 |
| 20260509000004 | 65 | 315 | 6.0 | 13.0 | 0.01 | 0.94 | 0.09 | 88 | 994.1 |
| 20260508235004 | 66 | 236 | 6.0 | 14.0 | 0.01 | 0.94 | 0.09 | 84 | 994.1 |
| 20260508234004 | 66 | 309 | 5.0 | 17.0 | 0.01 | 0.94 | 0.09 | 89 | 994.1 |
| 20260508233004 | 65 | 343 | 8.0 | 15.0 | 0.01 | 0.94 | 0.09 | 91 | 994.2 |
| 20260508232004 | 64 | 306 | 9.0 | 16.0 | 0.01 | 0.94 | 0.09 | 91 | 994.2 |
| 20260508231005 | 63 | 270 | 6.0 | 17.0 | 0.00 | 0.93 | 0.08 | 88 | 994.1 |
| 20260508230004 | 65 | 297 | 6.0 | 18.0 | 0.00 | 0.93 | 0.08 | 88 | 994.0 |
| 20260508225004 | 65 | 315 | 6.0 | 18.0 | 0.00 | 0.93 | 0.08 | 87 | 994.3 |
| 20260508224004 | 65 | 315 | 7.0 | 15.0 | 0.00 | 0.93 | 0.08 | 87 | 994.1 |
| 20260508223004 | 66 | 245 | 9.0 | 23.0 | 0.00 | 0.93 | 0.08 | 89 | 994.1 |
| 20260508222004 | 66 | 33 | 6.0 | 15.0 | 0.00 | 0.93 | 0.08 | 90 | 994.3 |
| 20260508221004 | 66 | 307 | 7.0 | 16.0 | 0.00 | 0.93 | 0.08 | 87 | 994.3 |
| 20260508220004 | 66 | 338 | 6.0 | 13.0 | 0.00 | 0.93 | 0.08 | 90 | 994.2 |
| 20260508215004 | 65 | 315 | 5.0 | 15.0 | 0.00 | 0.93 | 0.08 | 91 | 994.2 |
| 20260508214004 | 66 | 338 | 7.0 | 13.0 | 0.00 | 0.93 | 0.08 | 92 | 994.4 |
| 20260508213006 | 65 | 318 | 7.0 | 18.0 | 0.01 | 0.93 | 0.08 | 94 | 994.3 |
| 20260508212004 | 64 | 317 | 6.0 | 13.0 | 0.01 | 0.93 | 0.08 | 96 | 994.2 |
| 20260508211004 | 63 | 285 | 5.0 | 13.0 | 0.01 | 0.93 | 0.08 | 97 | 994.2 |
| 20260508210004 | 62 | 356 | 5.0 | 10.0 | 0.01 | 0.93 | 0.08 | 98 | 994.1 |
| 20260508205004 | 62 | 20 | 5.0 | 10.0 | 0.07 | 0.93 | 0.08 | 98 | 994.3 |
| 20260508204004 | 62 | 343 | 5.0 | 12.0 | 0.07 | 0.93 | 0.08 | 98 | 994.3 |
| 20260508203003 | 60 | 270 | 4.0 | 9.0 | 0.05 | 0.92 | 0.07 | 98 | 994.3 |
| 20260508202004 | 58 | 346 | 3.0 | 8.0 | 0.05 | 0.92 | 0.07 | 98 | 994.3 |
| 20260508201004 | 58 | 155 | 5.0 | 8.0 | 0.05 | 0.92 | 0.07 | 97 | 994.4 |
| 20260508200004 | 58 | 347 | 4.0 | 23.0 | 0.05 | 0.92 | 0.07 | 93 | 994.6 |
| 20260508195004 | 64 | 315 | 4.0 | 13.0 | 0.00 | 0.87 | 0.01 | 89 | 993.9 |
| 20260508194003 | 64 | 356 | 7.0 | 14.0 | 0.00 | 0.87 | 0.01 | 90 | 993.9 |
| 20260508193006 | 64 | 313 | 5.0 | 14.0 | 0.00 | 0.87 | 0.01 | 90 | 993.8 |
| 20260508192003 | 63 | 345 | 6.0 | 13.0 | 0.00 | 0.87 | 0.01 | 91 | 993.7 |
| 20260508191004 | 63 | 0 | 7.0 | 15.0 | 0.00 | 0.87 | 0.01 | 91 | 993.8 |
| 20260508190004 | 63 | 41 | 6.0 | 14.0 | 0.00 | 0.87 | 0.01 | 91 | 994.0 |
| 20260508185004 | 63 | 0 | 5.0 | 12.0 | 0.00 | 0.87 | 0.01 | 91 | 993.9 |
| 20260508184004 | 63 | 329 | 7.0 | 12.0 | 0.00 | 0.87 | 0.01 | 92 | 994.1 |
| 20260508183004 | 63 | 315 | 8.0 | 14.0 | 0.00 | 0.87 | 0.01 | 92 | 993.9 |
| 20260508182004 | 63 | 244 | 6.0 | 15.0 | 0.00 | 0.87 | 0.01 | 91 | 993.8 |
| 20260508181004 | 64 | 270 | 6.0 | 13.0 | 0.00 | 0.87 | 0.01 | 93 | 993.7 |
| 20260508180004 | 64 | 320 | 5.0 | 13.0 | 0.00 | 0.87 | 0.01 | 93 | 993.7 |
| 20260508175004 | 64 | 329 | 4.0 | 14.0 | 0.00 | 0.87 | 0.01 | 93 | 993.8 |
| 20260508174005 | 64 | 301 | 5.0 | 17.0 | 0.00 | 0.87 | 0.01 | 92 | 993.9 |
| 20260508173004 | 64 | 332 | 7.0 | 10.0 | 0.00 | 0.87 | 0.01 | 93 | 993.6 |
| 20260508172003 | 64 | 323 | 6.0 | 15.0 | 0.00 | 0.87 | 0.01 | 93 | 993.8 |
| 20260508171004 | 64 | 0 | 5.0 | 10.0 | 0.00 | 0.87 | 0.01 | 93 | 993.9 |
| 20260508170004 | 63 | 45 | 5.0 | 10.0 | 0.00 | 0.87 | 0.01 | 93 | 993.9 |
| 20260508165004 | 64 | 332 | 5.0 | 14.0 | 0.00 | 0.87 | 0.01 | 93 | 993.9 |
| 20260508164003 | 64 | 315 | 6.0 | 15.0 | 0.00 | 0.87 | 0.01 | 94 | 994.0 |
| 20260508163004 | 64 | 0 | 6.0 | 15.0 | 0.00 | 0.87 | 0.01 | 94 | 994.0 |
| 20260508162003 | 64 | 4 | 7.0 | 15.0 | 0.00 | 0.87 | 0.01 | 94 | 993.9 |
| 20260508161003 | 64 | 324 | 6.0 | 17.0 | 0.00 | 0.87 | 0.01 | 94 | 993.9 |
| 20260508160003 | 64 | 25 | 7.0 | 15.0 | 0.00 | 0.87 | 0.01 | 94 | 993.9 |
| 20260508155003 | 64 | 305 | 6.0 | 15.0 | 0.00 | 0.87 | 0.01 | 95 | 994.0 |
| 20260508154005 | 64 | 341 | 6.0 | 14.0 | 0.00 | 0.87 | 0.01 | 96 | 993.9 |
| 20260508152003 | 64 | 43 | 5.0 | 15.0 | 0.00 | 0.87 | 0.01 | 95 | 994.2 |
| 20260508151003 | 64 | 32 | 8.0 | 16.0 | 0.00 | 0.87 | 0.01 | 95 | 994.2 |
| 20260508150005 | 63 | 321 | 6.0 | 16.0 | 0.00 | 0.87 | 0.01 | 96 | 994.5 |
| 20260508145004 | 64 | 340 | 6.0 | 15.0 | 0.01 | 0.87 | 0.01 | 97 | 994.5 |
| 20260508144004 | 64 | 38 | 6.0 | 23.0 | 0.01 | 0.87 | 0.01 | 97 | 994.5 |
| 20260508143004 | 64 | 0 | 6.0 | 18.0 | 0.01 | 0.87 | 0.01 | 97 | 994.5 |
| 20260508142004 | 64 | 36 | 8.0 | 17.0 | 0.01 | 0.87 | 0.01 | 97 | 994.5 |
| 20260508141004 | 64 | 345 | 6.0 | 20.0 | 0.01 | 0.87 | 0.01 | 97 | 994.7 |
| 20260508140004 | 64 | 180 | 6.0 | 17.0 | 0.01 | 0.87 | 0.01 | 97 | 994.5 |
| 20260508135003 | 64 | 9 | 8.0 | 20.0 | 0.00 | 0.85 | 0.00 | 98 | 994.8 |
| 20260508134004 | 64 | 347 | 7.0 | 17.0 | 0.00 | 0.85 | 0.00 | 98 | 994.9 |
| 20260508133004 | 65 | 11 | 7.0 | 15.0 | 0.00 | 0.85 | 0.00 | 97 | 994.8 |
| 20260508132004 | 64 | 97 | 6.0 | 16.0 | 0.00 | 0.85 | 0.00 | 96 | 994.7 |
| 20260508131003 | 64 | 333 | 8.0 | 20.0 | 0.00 | 0.85 | 0.00 | 96 | 995.0 |
| 20260508130004 | 64 | 183 | 6.0 | 17.0 | 0.00 | 0.85 | 0.00 | 96 | 995.1 |
| 20260508125006 | 64 | 44 | 7.0 | 17.0 | 0.00 | 0.85 | 0.00 | 97 | 995.0 |
| 20260508124004 | 64 | 329 | 7.0 | 20.0 | 0.00 | 0.85 | 0.00 | 97 | 995.1 |
| 20260508123003 | 64 | 343 | 8.0 | 23.0 | 0.00 | 0.85 | 0.00 | 97 | 995.1 |
| 20260508122004 | 64 | 293 | 9.0 | 17.0 | 0.00 | 0.85 | 0.00 | 97 | 995.3 |
| 20260508121004 | 64 | 315 | 9.0 | 18.0 | 0.00 | 0.85 | 0.00 | 97 | 995.2 |
| 20260508120004 | 64 | 19 | 11.0 | 18.0 | 0.00 | 0.85 | 0.00 | 97 | 995.3 |
| 20260508115004 | 64 | 341 | 8.0 | 22.0 | 0.00 | 0.85 | 0.85 | 97 | 995.2 |
| 20260508114004 | 64 | 345 | 8.0 | 20.0 | 0.01 | 0.85 | 0.85 | 97 | 995.3 |
| 20260508113004 | 65 | 332 | 8.0 | 15.0 | 0.08 | 0.85 | 0.85 | 99 | 995.3 |
| 20260508112004 | 65 | 348 | 6.0 | 15.0 | 0.08 | 0.85 | 0.85 | 99 | 995.5 |
| 20260508111006 | 65 | 134 | 7.0 | 15.0 | 0.10 | 0.85 | 0.85 | 99 | 995.5 |
| 20260508110004 | 65 | 352 | 5.0 | 13.0 | 0.12 | 0.85 | 0.85 | 99 | 995.3 |
| 20260508105004 | 64 | 302 | 7.0 | 15.0 | 0.13 | 0.85 | 0.85 | 97 | 995.4 |
| 20260508104004 | 63 | 329 | 3.0 | 23.0 | 0.16 | 0.84 | 0.84 | 97 | 995.4 |
| 20260508103004 | 66 | 353 | 9.0 | 22.0 | 0.13 | 0.77 | 0.77 | 99 | 994.8 |
| 20260508102004 | 65 | 0 | 10.0 | 22.0 | 0.16 | 0.77 | 0.77 | 99 | 994.6 |
| 20260508101004 | 65 | 337 | 7.0 | 17.0 | 0.13 | 0.75 | 0.75 | 99 | 994.7 |
| 20260508100004 | 65 | 56 | 7.0 | 21.0 | 0.14 | 0.73 | 0.73 | 99 | 994.7 |
| 20260508095003 | 64 | 45 | 7.0 | 17.0 | 0.13 | 0.72 | 0.72 | 99 | 995.1 |
| 20260508094004 | 64 | 27 | 9.0 | 18.0 | 0.10 | 0.68 | 0.68 | 97 | 994.9 |
| 20260508093004 | 64 | 34 | 8.0 | 25.0 | 0.12 | 0.64 | 0.64 | 99 | 995.1 |
| 20260508092004 | 65 | 42 | 6.0 | 25.0 | 0.12 | 0.62 | 0.62 | 99 | 995.2 |
| 20260508091004 | 65 | 33 | 9.0 | 23.0 | 0.18 | 0.62 | 0.62 | 99 | 995.8 |
| 20260508090004 | 64 | 307 | 7.0 | 20.0 | 0.21 | 0.59 | 0.59 | 99 | 995.6 |
| 20260508085004 | 64 | 45 | 8.0 | 25.0 | 0.24 | 0.59 | 0.59 | 97 | 995.5 |
| 20260508084003 | 64 | 0 | 9.0 | 25.0 | 0.26 | 0.58 | 0.58 | 99 | 995.7 |
| 20260508083003 | 64 | 21 | 8.0 | 21.0 | 0.26 | 0.52 | 0.52 | 99 | 995.5 |
| 20260508082006 | 64 | 13 | 10.0 | 32.0 | 0.30 | 0.50 | 0.50 | 97 | 995.3 |
| 20260508081004 | 64 | 329 | 9.0 | 22.0 | 0.25 | 0.43 | 0.43 | 97 | 995.4 |
| 20260508080003 | 64 | 317 | 6.0 | 24.0 | 0.20 | 0.38 | 0.38 | 97 | 995.8 |
| 20260508075004 | 64 | 13 | 9.0 | 14.0 | 0.17 | 0.35 | 0.35 | 97 | 996.1 |
| 20260508074004 | 64 | 334 | 3.0 | 20.0 | 0.13 | 0.31 | 0.31 | 96 | 996.3 |
| 20260508073004 | 65 | 348 | 7.0 | 23.0 | 0.08 | 0.26 | 0.26 | 95 | 996.6 |
| 20260508072004 | 66 | 236 | 9.0 | 16.0 | 0.01 | 0.20 | 0.20 | 93 | 996.9 |
| 20260508071004 | 66 | 283 | 4.0 | 16.0 | 0.00 | 0.18 | 0.18 | 93 | 996.6 |
| 20260508070004 | 65 | 260 | 4.0 | 16.0 | 0.00 | 0.18 | 0.18 | 94 | 996.4 |
| 20260508065004 | 65 | 29 | 5.0 | 16.0 | 0.00 | 0.18 | 0.18 | 94 | 996.2 |
| 20260508064003 | 65 | 37 | 7.0 | 15.0 | 0.00 | 0.18 | 0.18 | 94 | 996.5 |
| 20260508063006 | 65 | 225 | 3.0 | 20.0 | 0.00 | 0.18 | 0.18 | 94 | 996.5 |
| 20260508062005 | 65 | 337 | 3.0 | 20.0 | 0.00 | 0.18 | 0.18 | 95 | 996.6 |
| 20260508061003 | 64 | 29 | 3.0 | 9.0 | 0.00 | 0.18 | 0.18 | 94 | 996.6 |
| 20260508060003 | 64 | 127 | 3.0 | 8.0 | 0.01 | 0.18 | 0.18 | 95 | 996.6 |
| 20260508055004 | 64 | 63 | 4.0 | 17.0 | 0.04 | 0.18 | 0.18 | 96 | 996.9 |
| 20260508054004 | 64 | 2 | 3.0 | 12.0 | 0.05 | 0.18 | 0.18 | 96 | 997.1 |
| 20260508053004 | 63 | 0 | 3.0 | 7.0 | 0.09 | 0.18 | 0.18 | 96 | 996.7 |
| 20260508052004 | 63 | 56 | 2.0 | 13.0 | 0.17 | 0.18 | 0.18 | 96 | 996.8 |
| 20260508051004 | 63 | 299 | 10.0 | 18.0 | 0.17 | 0.18 | 0.18 | 95 | 997.3 |
| 20260508050003 | 64 | 3 | 7.0 | 23.0 | 0.16 | 0.17 | 0.17 | 95 | 997.8 |
| 20260508045003 | 64 | 158 | 7.0 | 23.0 | 0.14 | 0.14 | 0.14 | 93 | 998.0 |
| 20260508044004 | 65 | 84 | 9.0 | 24.0 | 0.13 | 0.13 | 0.13 | 93 | 998.1 |
| 20260508043004 | 65 | 45 | 8.0 | 18.0 | 0.09 | 0.09 | 0.09 | 90 | 998.3 |
| 20260508042007 | 66 | 42 | 7.0 | 20.0 | 0.01 | 0.01 | 0.01 | 85 | 998.3 |
| 20260508041004 | 66 | 0 | 8.0 | 18.0 | 0.01 | 0.01 | 0.01 | 85 | 998.5 |
| 20260508040004 | 66 | 8 | 7.0 | 21.0 | 0.01 | 0.01 | 0.01 | 84 | 998.7 |
| 20260508035004 | 66 | 45 | 7.0 | 17.0 | 0.00 | 0.00 | 0.00 | 84 | 998.9 |
| 20260508034004 | 67 | 18 | 7.0 | 14.0 | 0.00 | 0.00 | 0.00 | 84 | 998.6 |
| 20260508033004 | 66 | 30 | 5.0 | 16.0 | 0.00 | 0.00 | 0.00 | 85 | 998.8 |
| 20260508032003 | 67 | 169 | 6.0 | 16.0 | 0.00 | 0.00 | 0.00 | 85 | 999.1 |
| 20260508031004 | 67 | 31 | 5.0 | 20.0 | 0.00 | 0.00 | 0.00 | 85 | 999.2 |
| 20260508030004 | 66 | 355 | 6.0 | 16.0 | 0.00 | 0.00 | 0.00 | 85 | 999.2 |
| 20260508025003 | 66 | 37 | 6.0 | 16.0 | 0.00 | 0.00 | 0.00 | 86 | 999.5 |